Regional Weather Roundup
Issued by NWS Kansas City/Pleasant Hill, MO

Home | Current Version | Previous Version | Graphics & Text | Print | Product List | Glossary Off
Versions: 1 2 3 4 5 6 7 8 9 10 11 12 13 14 15 16 17 18 19 20 21 22 23 24 25 26 27 28 29 30 31 32 33 34 35 36 37 38 39 40 41 42 43 44 45 46 47 48 49 50

000
ASUS43 KEAX 051510
RWREAX

WEATHER ROUNDUP FOR EASTERN KANSAS AND NORTHWEST MISSOURI
NATIONAL WEATHER SERVICE KANSAS CITY/PLEASANT HILL MO
900 AM CST FRI FEB 05 2016

KSZ040-057-103>105-MOZ028-029-037-043-051600-
...KANSAS CITY METROPOLITAN AREA...

CITY           SKY/WX    TMP DP  RH WIND       PRES   REMARKS
K.C. INTL      CLOUDY    26  22  84 SE7       30.41R WCI  18
K.C. DOWNTOWN  MOSUNNY   29  22  75 SE8       30.43R WCI  21
LEES SUMMIT    CLOUDY    26  21  81 SE6       30.43R WCI  19
OLATHE - IXD   CLOUDY    26  21  81 SE6       30.43R WCI  19
OLATHE - OJC   CLOUDY    26  20  77 SE6       30.42R WCI  19
LAWRENCE       CLOUDY    26  21  81 SE5       30.43R WCI  20

$$

MOZ001>008-011>017-020>025-030>033-038>040-044>046-053-054-051600-
...NORTHERN AND CENTRAL MISSOURI...

CITY           SKY/WX    TMP DP  RH WIND       PRES   REMARKS
ST. JOSEPH     CLOUDY    25  22  88 CALM      30.43S
MOSBY          MOSUNNY   27  23  86 CALM      30.44S
WARRENSBURG    CLOUDY    27  23  86 CALM      30.43S
WHITEMAN AFB   CLOUDY    27  23  82 SE6       30.42S WCI  21
CLINTON          N/A     30  27  86 E7        30.43S WCI  23
SEDALIA        CLOUDY    29  21  72 E7        30.44S WCI  22
WARSAW         NOT AVBL
CHILLICOTHE      N/A     26  19  74 CALM      30.46R
KIRKSVILLE     CLOUDY    24  18  77 CALM      30.42R

$$

MOZ041-047>049-056>058-063>065-088>090-097-051600-
...EASTERN AND SOUTHERN MISSOURI...

CITY           SKY/WX    TMP DP  RH WIND       PRES   REMARKS
ST. LOUIS INTL PTSUNNY   31  22  69 N5        30.44R WCI  26
SPIRIT OF STL  CLOUDY    30  24  78 CALM      30.44R
COLUMBIA       CLOUDY    27  22  81 CALM      30.44R
JEFFERSON CITY MOSUNNY   27  22  81 NW3       30.46R
ROLLA          SUNNY     28  22  78 NE3       30.40R
OSAGE BEACH    CLOUDY    27  19  74 NE5       30.43S WCI  21
SPRINGFIELD    CLOUDY    33  21  61 S3        30.39R
BRANSON        PTSUNNY   34  16  47 CALM      30.41R
JOPLIN         CLOUDY    33  21  61 SW6       30.41R WCI  28
WEST PLAINS    CLOUDY    33  17  51 SW5       30.42R WCI  29

$$

IAZ060-094-KSZ022-034>040-054-083-096-NEZ052-066-093-051600-
...KANSAS...SOUTHEAST NEBRASKA AND IOWA...

CITY           SKY/WX    TMP DP  RH WIND       PRES   REMARKS
TOPEKA         CLOUDY    27  21  78 CALM      30.43R
MANHATTAN      CLOUDY    25  22  88 CALM      30.41R
EMPORIA        CLOUDY    26  22  84 CALM      30.40R
CHANUTE        MOSUNNY   30  22  72 E3        30.41R
WICHITA        PTSUNNY   31  21  66 N5        30.38R WCI  26
OMAHA          CLOUDY    24  20  84 S10       30.37S WCI  14
LINCOLN        LGT SNOW  23  19  85 S9        30.36S VSB 1   WCI  13
FALLS CITY     CLOUDY    25  21  85 SE5       30.41R WCI  19
LAMONI         CLOUDY    22  16  78 S6        30.40R WCI  14
DES MOINES     CLOUDY    19  14  81 S3        30.40S

$$




USA.gov is the U.S. government's official web portal to all federal, state and local government web resources and services.